N1YZ Weather Reports


time (UTC)temp
C
wind
direction
speed
KPH
gust
KPH
rain 1hr
cm
rain 24hr
cm
rain mn
cm
humidity
%
barometer
mb
20260906051750 25 3 0.0 0.0 0.00 0.00 0.00 92 1032.4
20260906051249 25 2 0.0 0.0 0.00 0.00 0.00 92 1032.5
20260906050745 25 6 0.0 0.0 0.00 0.00 0.00 92 1032.8
20260906050240 25 5 0.0 0.0 0.00 0.00 0.00 92 1033.0
20260906045739 26 21 0.0 0.0 0.00 0.00 0.00 91 1032.8
20260906045233 26 22 0.0 0.0 0.00 0.00 0.00 91 1032.6
20260906044729 26 13 0.0 0.0 0.00 0.00 0.00 91 1032.6
20260906044224 26 356 0.0 0.0 0.00 0.00 0.00 91 1032.2
20260906043720 26 359 0.0 0.0 0.00 0.00 0.00 91 1032.3
20260906043216 26 359 0.0 0.0 0.00 0.00 0.00 91 1032.4
20260906042715 26 0 0.0 0.0 0.00 0.00 0.00 91 1032.3
20260906042209 26 0 0.0 0.0 0.00 0.00 0.00 91 1032.5
20260906041704 26 0 0.0 0.0 0.00 0.00 0.00 90 1032.4
20260906041159 26 0 0.0 0.0 0.00 0.00 0.00 90 1032.3
20260906040655 26 359 0.0 0.0 0.00 0.00 0.00 90 1032.4
20260906040150 26 349 0.0 0.0 0.00 0.00 0.00 91 1032.3
20260906035645 26 358 0.0 0.0 0.00 0.00 0.00 90 1032.6
20260906035141 26 358 0.0 0.0 0.00 0.00 0.00 90 1032.6
20260906034635 26 358 0.0 0.0 0.00 0.00 0.00 89 1032.6
20260906034130 26 358 0.0 0.0 0.00 0.00 0.00 89 1032.6
20260906033626 26 358 0.0 0.0 0.00 0.00 0.00 88 1032.6
20260906033120 26 358 0.0 0.0 0.00 0.00 0.00 88 1032.6
20260906032617 26 0 0.0 0.0 0.00 0.00 0.00 89 1032.4
20260906032116 26 0 0.0 0.0 0.00 0.00 0.00 89 1032.4
20260906031612 26 0 0.0 0.0 0.00 0.00 0.00 89 1032.4
20260906031108 26 0 0.0 0.0 0.00 0.00 0.00 88 1032.5
20260906030606 26 1 0.0 0.0 0.00 0.00 0.00 88 1032.6
20260906025556 26 359 0.0 0.0 0.00 0.00 0.00 88 1032.3
20260906025054 27 359 0.0 0.0 0.00 0.00 0.00 88 1032.5
20260906024549 27 359 0.0 0.0 0.00 0.00 0.00 87 1032.3
20260906024044 27 359 0.0 0.0 0.00 0.00 0.00 87 1032.4
20260906023540 27 359 0.0 0.0 0.00 0.00 0.00 87 1032.5
20260906023034 27 359 0.0 0.0 0.00 0.00 0.00 87 1032.3
20260906022530 27 359 0.0 0.0 0.00 0.00 0.00 87 1032.3
20260906022025 27 359 0.0 0.0 0.00 0.00 0.00 87 1032.4
20260906021520 27 359 0.0 0.0 0.00 0.00 0.00 87 1032.2
20260906021014 27 359 0.0 0.0 0.00 0.00 0.00 86 1032.4
20260906020514 27 359 0.0 0.0 0.00 0.00 0.00 86 1032.4
20260906020014 27 359 0.0 0.0 0.00 0.00 0.00 86 1032.4
20260906015513 27 359 0.0 0.0 0.00 0.00 0.00 86 1032.3
20260906015013 27 1 0.0 0.0 0.00 0.00 0.00 86 1031.9
20260906014508 27 0 0.0 0.0 0.00 0.00 0.00 86 1031.7
20260906014003 27 1 0.0 0.0 0.00 0.00 0.00 85 1031.6
20260906013458 27 1 0.0 0.0 0.00 0.00 0.00 84 1031.6
20260906012954 27 1 0.0 0.0 0.00 0.00 0.00 84 1031.7
20260906012449 28 1 0.0 0.0 0.00 0.00 0.00 84 1031.4
20260906011948 28 3 0.0 0.0 0.00 0.00 0.00 84 1031.6
20260906011444 28 3 1.6 1.6 0.00 0.00 0.00 84 1031.2
20260906010939 28 358 0.0 0.0 0.00 0.00 0.00 84 1030.7
20260906010434 28 2 0.0 0.0 0.00 0.00 0.00 84 1031.0
20260906005930 28 2 0.0 0.0 0.00 0.00 0.00 84 1030.7
20260906005430 28 3 0.0 0.0 0.00 0.00 0.00 83 1031.0
20260906004928 28 10 0.0 0.0 0.00 0.00 0.00 83 1030.9
20260906004423 28 7 0.0 0.0 0.00 0.00 0.00 82 1031.0
20260906003919 28 0 0.0 0.0 0.00 0.00 0.00 82 1031.0
20260906003414 28 8 0.0 0.0 0.00 0.00 0.00 81 1031.2
20260906002909 28 5 0.0 0.0 0.00 0.00 0.00 81 1030.9
20260906002409 29 7 0.0 0.0 0.00 0.00 0.00 80 1031.0
20260906001904 29 7 0.0 0.0 0.00 0.00 0.00 80 1031.1
20260906001400 29 340 0.0 0.0 0.00 0.00 0.00 79 1031.1
20260906000356 29 338 0.0 0.0 0.00 0.00 0.00 79 1031.0
20260905235849 29 12 0.0 0.0 0.00 0.00 0.00 79 1031.2
20260905235343 30 6 0.0 0.0 0.00 0.00 0.00 79 1031.0
20260905234838 30 10 1.6 3.2 0.00 0.00 0.00 78 1031.2
20260905234334 30 347 1.6 1.6 0.00 0.00 0.00 78 1031.0
20260905233829 30 15 0.0 1.6 0.00 0.00 0.00 79 1031.0
20260905233324 30 349 0.0 1.6 0.00 0.00 0.00 78 1031.1
20260905232823 30 356 3.2 4.8 0.00 0.00 0.00 77 1031.1
20260905232319 30 9 0.0 0.0 0.00 0.00 0.00 78 1031.1
20260905231815 30 13 0.0 0.0 0.00 0.00 0.00 77 1030.9
20260905231310 30 19 0.0 0.0 0.00 0.00 0.00 77 1030.9
20260905230806 30 14 0.0 0.0 0.00 0.00 0.00 77 1030.9
20260905230304 31 20 0.0 0.0 0.00 0.00 0.00 77 1031.0
20260905225803 31 337 0.0 0.0 0.00 0.00 0.00 76 1030.9
20260905225259 31 1 1.6 1.6 0.00 0.00 0.00 75 1031.0
20260905224758 31 21 0.0 1.6 0.00 0.00 0.00 74 1031.1
20260905224254 31 35 1.6 3.2 0.00 0.00 0.00 73 1030.9
20260905223749 32 56 1.6 3.2 0.00 0.00 0.00 72 1030.9
20260905223246 32 2 0.0 0.0 0.00 0.00 0.00 71 1030.5
20260905222741 32 31 0.0 0.0 0.00 0.00 0.00 71 1030.8
20260905222240 32 357 1.6 3.2 0.00 0.00 0.00 71 1030.8
20260905221736 32 7 0.0 1.6 0.00 0.00 0.00 71 1030.6
20260905221233 32 25 0.0 0.0 0.00 0.00 0.00 70 1030.8
20260905220729 32 11 0.0 0.0 0.00 0.00 0.00 71 1030.6
20260905220225 32 7 0.0 1.6 0.00 0.00 0.00 70 1030.5
20260905215724 32 3 0.0 0.0 0.00 0.00 0.00 69 1030.5
20260905215220 32 355 1.6 1.6 0.00 0.00 0.00 68 1030.3
20260905214715 33 21 0.0 0.0 0.00 0.00 0.00 67 1030.3
20260905214211 33 12 0.0 0.0 0.00 0.00 0.00 65 1030.3
20260905213706 33 359 0.0 0.0 0.00 0.00 0.00 63 1030.5
20260905213202 33 8 0.0 0.0 0.00 0.00 0.00 61 1030.3
20260905212657 33 2 0.0 0.0 0.00 0.00 0.00 60 1030.5
20260905212156 33 25 0.0 0.0 0.00 0.00 0.00 61 1030.4
20260905211650 34 26 0.0 0.0 0.00 0.00 0.00 59 1030.6
20260905211146 34 3 0.0 0.0 0.00 0.00 0.00 57 1030.5
20260905210642 34 12 0.0 0.0 0.00 0.00 0.00 61 1030.7
20260905210137 35 356 1.6 1.6 0.00 0.00 0.00 59 1030.6
20260905205636 35 2 0.0 0.0 0.00 0.00 0.00 59 1030.8
20260905205131 35 337 4.8 4.8 0.00 0.00 0.00 60 1030.8
20260905204629 35 9 0.0 0.0 0.00 0.00 0.00 59 1030.6
20260905204125 34 83 1.6 1.6 0.00 0.00 0.00 59 1030.5
20260905203625 34 22 0.0 0.0 0.00 0.00 0.00 61 1030.7
20260905203121 34 3 1.6 1.6 0.00 0.00 0.00 62 1030.8
20260905202616 33 7 0.0 0.0 0.00 0.00 0.00 62 1030.7
20260905202111 34 3 0.0 0.0 0.00 0.00 0.00 62 1031.1
20260905201607 34 349 0.0 0.0 0.00 0.00 0.00 59 1031.1
20260905201106 34 353 0.0 0.0 0.00 0.00 0.00 60 1031.1
20260905200602 34 19 0.0 0.0 0.00 0.00 0.00 61 1031.1
20260905200056 34 6 1.6 3.2 0.00 0.00 0.00 62 1031.0
20260905195550 35 7 1.6 3.2 0.00 0.00 0.00 59 1030.8
20260905195046 35 221 0.0 1.6 0.00 0.00 0.00 54 1031.0
20260905194545 35 352 0.0 0.0 0.00 0.00 0.00 50 1031.1
20260905194045 35 57 0.0 0.0 0.00 0.00 0.00 49 1031.0
20260905193540 35 0 0.0 0.0 0.00 0.00 0.00 54 1031.0
20260905193035 35 27 0.0 0.0 0.00 0.00 0.00 51 1031.2
20260905192530 35 139 1.6 1.6 0.00 0.00 0.00 50 1031.5
20260905192027 35 190 3.2 3.2 0.00 0.00 0.00 50 1031.6
20260905191524 35 50 0.0 1.6 0.00 0.00 0.00 50 1031.7
20260905191024 35 33 1.6 1.6 0.00 0.00 0.00 52 1031.8
20260905190522 34 351 0.0 0.0 0.00 0.00 0.00 55 1031.7
20260905190016 34 26 0.0 0.0 0.00 0.00 0.00 57 1031.7
20260905185510 35 338 3.2 3.2 0.00 0.00 0.00 55 1031.6
20260905185009 35 120 1.6 1.6 0.00 0.00 0.00 51 1031.9
20260905184504 35 18 0.0 0.0 0.00 0.00 0.00 52 1032.1
20260905184003 35 6 1.6 1.6 0.00 0.00 0.00 54 1032.1
20260905183503 36 295 0.0 0.0 0.00 0.00 0.00 55 1032.4
20260905182957 35 192 1.6 1.6 0.00 0.00 0.00 51 1032.2
20260905182457 35 61 1.6 1.6 0.00 0.00 0.00 54 1032.4
20260905181952 35 161 1.6 1.6 0.00 0.00 0.00 53 1032.5
20260905181447 35 2 0.0 0.0 0.00 0.00 0.00 53 1032.5
20260905180946 36 193 3.2 4.8 0.00 0.00 0.00 50 1032.5
20260905180441 35 10 0.0 0.0 0.00 0.00 0.00 53 1032.8
20260905175936 35 78 1.6 1.6 0.00 0.00 0.00 51 1032.9
20260905175435 35 29 0.0 0.0 0.00 0.00 0.00 51 1032.7
20260905174931 36 353 1.6 3.2 0.00 0.00 0.00 53 1032.8
20260905174427 35 343 1.6 1.6 0.00 0.00 0.00 53 1033.0
20260905173922 34 358 0.0 0.0 0.00 0.00 0.00 52 1032.9
20260905173418 35 18 0.0 1.6 0.00 0.00 0.00 56 1033.2
20260905172913 34 66 1.6 1.6 0.00 0.00 0.00 57 1033.3
20260905172411 34 14 0.0 0.0 0.00 0.00 0.00 57 1032.9
20260905171907 33 22 0.0 0.0 0.00 0.00 0.00 60 1033.2
20260905171404 33 27 0.0 1.6 0.00 0.00 0.00 58 1033.3
20260905170900 33 11 1.6 1.6 0.00 0.00 0.00 58 1033.3
20260905170355 33 23 0.0 1.6 0.00 0.00 0.00 62 1033.6
20260905165854 33 7 1.6 1.6 0.00 0.00 0.00 58 1033.6
20260905165350 33 8 0.0 0.0 0.00 0.00 0.00 61 1033.5
20260905164844 33 83 0.0 1.6 0.00 0.00 0.00 58 1033.7
20260905164339 33 25 0.0 0.0 0.00 0.00 0.00 59 1033.9
20260905163835 33 352 0.0 0.0 0.00 0.00 0.00 61 1034.0
20260905163331 33 19 0.0 0.0 0.00 0.00 0.00 58 1033.8
20260905162826 33 282 0.0 0.0 0.00 0.00 0.00 60 1034.0
20260905162321 33 23 0.0 0.0 0.00 0.00 0.00 61 1033.8
20260905161815 33 11 0.0 0.0 0.00 0.00 0.00 65 1033.8
20260905161315 33 23 0.0 0.0 0.00 0.00 0.00 62 1034.1
20260905160813 32 0 0.0 0.0 0.00 0.00 0.00 65 1034.0
20260905160308 33 356 0.0 1.6 0.00 0.00 0.00 62 1034.0
20260905155802 33 76 1.6 3.2 0.00 0.00 0.00 62 1034.1
20260905155301 33 292 0.0 0.0 0.00 0.00 0.00 65 1034.0
20260905154754 32 7 0.0 0.0 0.00 0.00 0.00 65 1034.1
20260905154251 32 29 0.0 0.0 0.00 0.00 0.00 65 1033.8
20260905153746 32 356 1.6 1.6 0.00 0.00 0.00 67 1034.0
20260905153242 32 8 0.0 0.0 0.00 0.00 0.00 66 1033.9
20260905152736 32 21 0.0 0.0 0.00 0.00 0.00 66 1034.0
20260905152230 32 203 0.0 0.0 0.00 0.00 0.00 66 1033.9
20260905151725 31 17 0.0 0.0 0.00 0.00 0.00 68 1034.0
20260905151221 31 12 0.0 0.0 0.00 0.00 0.00 70 1034.0
20260905150716 31 14 0.0 0.0 0.00 0.00 0.00 71 1034.1
20260905150215 31 20 0.0 0.0 0.00 0.00 0.00 73 1034.0
20260905145713 31 358 0.0 0.0 0.00 0.00 0.00 72 1034.0
20260905145208 31 23 0.0 0.0 0.00 0.00 0.00 71 1034.0
20260905144706 32 351 0.0 0.0 0.00 0.00 0.00 72 1034.2
20260905144206 32 352 0.0 0.0 0.00 0.00 0.00 70 1033.9
20260905143705 33 345 0.0 0.0 0.00 0.00 0.00 68 1034.2
20260905143200 33 352 0.0 0.0 0.00 0.00 0.00 69 1034.2
20260905142659 33 353 0.0 0.0 0.00 0.00 0.00 70 1034.3
20260905142154 32 352 0.0 0.0 0.00 0.00 0.00 69 1034.4
20260905141649 31 352 0.0 0.0 0.00 0.00 0.00 75 1034.3
20260905141145 30 8 0.0 0.0 0.00 0.00 0.00 77 1034.3
20260905140640 28 9 0.0 0.0 0.00 0.00 0.00 80 1034.5
20260905140138 28 7 0.0 0.0 0.00 0.00 0.00 84 1034.3
20260905135629 27 351 0.0 0.0 0.00 0.00 0.00 85 1034.4
20260905135124 27 2 0.0 0.0 0.00 0.00 0.00 86 1034.3
20260905134618 27 339 0.0 0.0 0.00 0.00 0.00 87 1034.4
20260905134116 27 313 0.0 0.0 0.00 0.00 0.00 87 1034.5
20260905133612 26 304 0.0 0.0 0.00 0.00 0.00 89 1034.3
20260905133107 26 342 0.0 0.0 0.00 0.00 0.00 90 1034.4
20260905132607 26 358 0.0 0.0 0.00 0.00 0.00 90 1034.3
20260905132101 26 64 0.0 0.0 0.00 0.00 0.00 91 1033.9
20260905131557 25 34 0.0 0.0 0.00 0.00 0.00 91 1034.2
20260905131052 25 25 0.0 0.0 0.00 0.00 0.00 92 1034.5
20260905130550 25 317 0.0 0.0 0.00 0.00 0.00 92 1034.5
20260905130046 25 302 0.0 0.0 0.00 0.00 0.00 93 1034.5
20260905125545 25 327 0.0 0.0 0.00 0.00 0.00 94 1034.5
20260905125041 24 11 0.0 0.0 0.00 0.00 0.00 95 1034.6
20260905124537 24 48 0.0 0.0 0.00 0.00 0.00 96 1034.3
20260905124033 24 6 0.0 0.0 0.00 0.00 0.00 97 1034.5
20260905123529 23 5 0.0 0.0 0.00 0.00 0.00 97 1034.6
20260905123026 23 11 0.0 0.0 0.00 0.00 0.00 97 1034.6
20260905122525 23 11 0.0 0.0 0.00 0.00 0.00 97 1034.4
20260905122020 23 11 0.0 0.0 0.00 0.00 0.00 97 1034.6
20260905121515 23 47 0.0 0.0 0.00 0.00 0.00 97 1034.3
20260905121015 23 47 0.0 0.0 0.00 0.00 0.00 97 1034.3
20260905120509 23 34 0.0 0.0 0.00 0.00 0.00 97 1034.4
20260905120005 23 24 0.0 0.0 0.00 0.00 0.00 98 1034.4
20260905115503 23 24 0.0 0.0 0.00 0.00 0.00 98 1034.1
20260905114958 23 22 0.0 0.0 0.00 0.00 0.00 98 1034.1
20260905114458 23 22 0.0 0.0 0.00 0.00 0.00 98 1034.2
20260905113956 23 22 0.0 0.0 0.00 0.00 0.00 98 1034.0
20260905113452 23 22 0.0 0.0 0.00 0.00 0.00 98 1034.2
20260905112947 23 23 0.0 0.0 0.00 0.00 0.00 98 1034.1
20260905112443 23 23 0.0 0.0 0.00 0.00 0.00 98 1034.0
20260905111938 23 23 0.0 0.0 0.00 0.00 0.00 97 1033.8
20260905111432 23 23 0.0 0.0 0.00 0.00 0.00 97 1033.8
20260905110926 23 23 0.0 0.0 0.00 0.00 0.00 97 1033.9
20260905110420 23 20 0.0 0.0 0.00 0.00 0.00 97 1034.0
20260905105914 23 1 0.0 0.0 0.00 0.00 0.00 97 1033.9
20260905105409 23 1 0.0 0.0 0.00 0.00 0.00 97 1034.0
20260905104908 23 1 0.0 0.0 0.00 0.00 0.00 97 1033.8
20260905104405 23 1 0.0 0.0 0.00 0.00 0.00 97 1033.8
20260905103904 23 1 0.0 0.0 0.00 0.00 0.00 97 1033.6
20260905103400 23 1 0.0 0.0 0.00 0.00 0.00 97 1033.7
20260905102856 23 1 0.0 0.0 0.00 0.00 0.00 97 1033.7
20260905102352 23 1 0.0 0.0 0.00 0.00 0.00 97 1033.8
20260905101847 23 1 0.0 0.0 0.00 0.00 0.00 96 1033.7
20260905101345 23 1 0.0 0.0 0.00 0.00 0.00 96 1034.0
20260905100839 23 1 0.0 0.0 0.00 0.00 0.00 96 1033.8
20260905100336 23 1 0.0 0.0 0.00 0.00 0.00 96 1034.2
20260905095834 23 1 0.0 0.0 0.00 0.00 0.00 96 1033.8
20260905095329 23 1 0.0 0.0 0.00 0.00 0.00 96 1033.8
20260905094824 23 0 0.0 0.0 0.00 0.00 0.00 96 1033.6
20260905094320 23 0 0.0 0.0 0.00 0.00 0.00 95 1033.7
20260905093818 23 0 0.0 0.0 0.00 0.00 0.00 95 1033.6
20260905093314 23 0 0.0 0.0 0.00 0.00 0.00 95 1033.6
20260905092809 23 0 0.0 0.0 0.00 0.00 0.00 95 1033.6
20260905092306 23 0 0.0 0.0 0.00 0.00 0.00 95 1033.5
20260905091759 23 0 0.0 0.0 0.00 0.00 0.00 95 1033.8
20260905091259 23 0 0.0 0.0 0.00 0.00 0.00 95 1033.9
20260905090757 23 0 0.0 0.0 0.00 0.00 0.00 94 1033.9
20260905090254 23 0 0.0 0.0 0.00 0.00 0.00 94 1033.7
20260905085753 23 0 0.0 0.0 0.00 0.00 0.00 94 1033.7
20260905085252 23 0 0.0 0.0 0.00 0.00 0.00 94 1033.7
20260905084747 23 0 0.0 0.0 0.00 0.00 0.00 94 1033.6
20260905084242 23 0 0.0 0.0 0.00 0.00 0.00 93 1033.6
20260905083737 23 359 0.0 0.0 0.00 0.00 0.00 93 1033.6
20260905083232 24 359 0.0 0.0 0.00 0.00 0.00 93 1033.6
20260905082728 24 359 0.0 0.0 0.00 0.00 0.00 93 1033.4
20260905082224 23 359 0.0 0.0 0.00 0.00 0.00 93 1033.3
20260905081718 24 359 0.0 0.0 0.00 0.00 0.00 93 1033.5
20260905081213 24 359 0.0 0.0 0.00 0.00 0.00 93 1033.4
20260905080712 24 359 0.0 0.0 0.00 0.00 0.00 93 1033.6
20260905080207 24 359 0.0 0.0 0.00 0.00 0.00 92 1033.4
20260905075706 24 359 0.0 0.0 0.00 0.00 0.00 92 1033.3
20260905075205 24 359 0.0 0.0 0.00 0.00 0.00 92 1033.5
20260905074704 24 359 0.0 0.0 0.00 0.00 0.00 91 1033.4
20260905074201 25 359 0.0 0.0 0.00 0.00 0.00 91 1033.3
20260905073656 25 358 0.0 0.0 0.00 0.00 0.00 91 1033.4
20260905073152 25 359 0.0 0.0 0.00 0.00 0.00 90 1033.4
20260905072651 25 359 0.0 0.0 0.00 0.00 0.00 90 1033.3
20260905072146 25 359 0.0 0.0 0.00 0.00 0.00 90 1033.1
20260905071643 25 359 0.0 0.0 0.00 0.00 0.00 89 1033.1
20260905071138 25 359 0.0 0.0 0.00 0.00 0.00 89 1033.2
20260905070633 25 359 0.0 0.0 0.00 0.00 0.00 89 1033.2
20260905070129 25 359 0.0 0.0 0.00 0.00 0.00 88 1033.3
20260905065627 25 359 0.0 0.0 0.00 0.00 0.00 88 1033.3
20260905065122 25 358 0.0 0.0 0.00 0.00 0.00 88 1033.1
20260905064617 25 358 0.0 0.0 0.00 0.00 0.00 88 1033.2
20260905064113 25 358 0.0 0.0 0.00 0.00 0.00 88 1033.2
20260905063611 25 358 0.0 0.0 0.00 0.00 0.00 88 1033.4
20260905063107 25 358 0.0 0.0 0.00 0.00 0.00 88 1033.3
20260905062602 25 358 0.0 0.0 0.00 0.00 0.00 88 1033.5
20260905062056 25 358 0.0 0.0 0.00 0.00 0.00 87 1033.6
20260905061552 25 358 0.0 0.0 0.00 0.00 0.00 87 1033.3
20260905061051 25 358 0.0 0.0 0.00 0.00 0.00 86 1033.3
20260905060547 25 358 0.0 0.0 0.00 0.00 0.00 86 1033.4
20260905060043 25 358 0.0 0.0 0.00 0.00 0.00 85 1033.7
20260905055541 26 358 0.0 0.0 0.00 0.00 0.00 85 1033.6
20260905055036 26 358 0.0 0.0 0.00 0.00 0.00 85 1033.5
20260905054532 26 358 0.0 0.0 0.00 0.00 0.00 85 1033.6
20260905054027 25 0 0.0 0.0 0.00 0.00 0.00 85 1033.3
20260905053527 26 1 0.0 0.0 0.00 0.00 0.00 85 1033.5
20260905053023 26 1 0.0 0.0 0.00 0.00 0.00 85 1033.2
20260905052521 26 1 0.0 0.0 0.00 0.00 0.00 85 1033.5